Location: La Bastide
(43.1661°N, 1.2755°E)
Time: 17:20:53
(UTC+00:00)

ISS - Pass Details

Date: 24 February 2026
Orbit: 416 x 427 km, 51.6° (Epoch: 6 March)

Event Time Altitude Azimuth Distance (km) Brightness Sun altitude
Exits shadow 05:37:06 11° 320° (NW) 1,451 -1.4 -12.1°
Maximum altitude 05:39:34 21° 9° (N) 1,007 -1.8 -11.6°
Drops below altitude 10° 05:42:11 10° 61° (ENE) 1,493 0.0 -11.2°
Sets 05:44:38 0° 78° (ENE) 2,354 1.8 -10.7°
